Wind_Speed
10 10 10 10 10 10 11 13 14 14 14 15 16 16 16 15 15 15 15 15 14 14 13 13 12 11 11 10 10 10 10 11 11 11 12 12 12 13 14 15 16 16 17 17 18 18 19 19 19
12 11 11 11 10 10 11 12 13 13 13 14 15 15 14 14 13 14 14 14 14 13 13 12 12 11 11 11 10 10 11 11 11 11 12 12 13 14 15 15 16 16 17 17 18 18 19 20 20
13 13 12 12 10 10 11 12 12 13 13 14 13 14 14 13 13 13 13 13 13 12 12 11 11 11 10 10 10 10 10 11 11 12 13 14 15 15 16 17 17 17 18 19 19 20 20 21 21
16 15 14 13 12 12 12 12 12 13 13 13 13 13 13 14 14 13 13 12 12 11 11 11 11 10 10 10 10 11 11 12 12 13 14 15 16 17 17 18 18 18 19 20 20 21 21 21 22
19 18 16 15 14 13 13 13 12 13 13 13 13 13 13 13 13 13 12 12 11 11 11 10 10 10 10 10 11 12 12 13 14 14 15 16 17 17 18 18 19 19 20 21 21 21 22 22 23
21 20 19 17 16 15 14 14 13 13 13 13 13 13 13 12 12 12 13 12 11 11 10 10 10 10 10 11 12 12 13 13 14 15 16 16 17 18 18 19 20 20 21 21 22 23 23 24 24
25 23 21 20 19 17 16 16 14 14 14 13 13 13 13 12 12 12 12 12 11 11 10 10 11 11 11 12 13 13 14 14 15 16 17 18 18 18 19 20 21 21 22 23 23 24 25 25 26
28 27 25 23 21 20 19 18 16 16 15 14 14 13 13 12 12 12 12 12 11 11 11 11 11 12 12 13 13 14 15 15 16 17 18 18 19 19 20 21 22 22 23 24 25 25 26 26 27
32 30 28 26 24 23 22 21 19 17 17 15 14 14 14 13 12 12 12 12 12 11 11 11 12 12 13 14 14 15 16 17 17 18 18 19 20 21 22 23 23 24 25 25 26 26 27 27 28
34 32 29 29 28 27 25 23 22 20 18 17 16 16 15 15 14 13 13 13 13 13 13 13 13 14 14 15 16 16 17 18 19 19 20 21 22 22 23 24 25 26 26 27 27 28 28 29 29
36 34 33 32 31 30 28 27 25 23 21 20 19 18 17 17 16 15 14 15 15 15 15 14 15 15 16 17 18 18 19 20 20 21 21 22 23 24 25 25 26 27 28 28 28 29 29 30 30
38 36 36 35 35 34 32 30 28 26 24 24 22 21 20 19 18 17 16 16 16 16 16 17 17 17 18 19 19 20 20 21 22 22 23 24 25 26 26 27 28 28 29 30 30 30 31 31 31
41 39 39 38 38 37 35 33 31 29 28 27 25 24 22 21 20 20 18 18 17 18 18 18 19 19 20 20 21 21 21 22 23 24 25 26 27 28 28 29 30 30 30 31 31 31 32 32 32
43 42 42 41 41 39 38 36 34 31 31 30 28 26 25 24 24 23 22 21 20 20 20 21 21 22 22 22 22 23 23 24 25 26 27 28 29 29 30 31 31 31 32 32 32 32 33 33 33
46 46 45 44 43 41 41 40 36 34 34 33 31 29 28 27 27 26 25 24 23 23 23 23 23 23 23 23 24 25 26 27 27 28 29 30 30 30 31 31 31 32 32 33 33 34 34 34 34
48 48 47 44 44 44 44 41 38 38 37 35 34 32 30 29 28 28 28 27 26 26 25 25 25 25 26 26 26 27 27 28 29 30 30 31 31 32 32 32 32 33 33 34 34 34 34 35 35
51 49 46 45 45 45 46 42 40 40 39 37 36 35 33 31 30 30 30 29 28 28 28 27 27 28 28 29 29 29 29 30 31 31 32 32 33 33 33 33 34 34 34 34 35 35 35 36 36
49 48 46 45 45 46 47 44 42 43 42 40 39 37 36 34 32 32 32 31 31 30 30 30 30 31 31 31 31 31 32 32 33 33 33 33 33 34 34 34 35 35 35 35 35 35 36 36 37
48 48 47 46 45 47 47 46 44 45 44 42 41 40 38 36 34 34 34 33 33 32 32 32 33 33 33 33 33 33 33 34 34 34 34 34 34 35 35 35 35 35 35 36 36 36 37 37 38
50 49 48 47 47 48 49 48 46 46 45 43 42 41 39 38 37 36 35 35 35 34 34 34 34 34 34 34 34 34 35 34 34 34 35 36 36 36 36 36 36 36 36 37 37 37 37 38 38
51 50 47 47 47 49 49 49 47 45 45 44 43 42 40 39 38 38 37 37 36 36 36 35 35 35 35 35 35 35 35 35 34 35 36 36 36 36 37 36 37 37 37 37 37 37 38 38 39
50 47 46 47 48 49 50 51 47 45 45 44 43 42 40 40 39 39 38 37 37 36 36 36 36 36 36 35 35 35 35 35 36 36 36 37 37 37 37 37 37 37 37 37 37 38 38 39 39
47 45 46 46 48 49 49 52 48 45 44 42 41 41 41 40 40 39 38 37 37 37 37 36 36 36 36 36 36 36 36 36 36 37 37 37 37 38 38 38 38 38 38 38 38 38 38 39 40
47 46 46 47 48 52 49 51 50 43 41 41 40 41 40 40 40 40 39 38 38 37 36 36 36 36 36 36 36 36 36 36 36 37 37 37 37 38 38 38 38 38 38 38 38 38 39 40 41
51 50 49 49 51 52 47 50 50 40 38 38 38 39 39 39 39 38 38 37 36 36 36 36 36 36 36 36 36 36 36 36 37 37 37 37 37 37 38 38 38 38 38 38 39 39 40 41 41
52 52 52 51 51 49 47 49 46 40 37 37 37 37 38 38 37 37 36 36 36 36 36 36 36 35 35 35 35 36 36 36 37 37 37 36 37 38 38 38 38 38 38 39 39 40 41 41 42
51 52 50 50 51 50 50 47 44 40 37 36 36 35 36 36 36 36 36 35 35 36 35 35 35 34 34 35 35 35 35 36 36 37 37 37 37 38 37 37 37 37 38 39 40 41 41 42 43
50 49 51 52 52 52 51 48 43 38 36 34 33 33 34 35 35 35 35 35 35 34 34 34 34 34 34 35 35 35 35 35 36 37 36 36 37 37 37 37 36 37 38 40 41 41 42 43 44
51 52 53 52 52 51 50 47 39 36 34 33 32 31 32 32 33 33 33 33 33 33 33 34 34 34 34 34 34 34 34 34 35 35 35 36 36 36 36 36 37 38 39 40 41 41 42 43 45
50 51 51 52 51 49 48 45 39 36 34 33 32 31 30 31 31 31 31 32 32 32 32 32 32 32 32 33 32 32 33 34 34 35 35 35 35 36 36 36 37 38 39 40 41 42 43 45 46
Wind_Direction
223 217 213 210 210 208 202 200 202 205 208 209 209 210 208 207 208 210 215 218 220 224 226 228 230 234 238 244 249 254 258 262 267 271 274 276 278 280 283 284 286 287 287 288 289 290 291 291 291
223 216 213 209 208 204 200 198 199 201 204 205 205 207 205 203 204 208 213 213 216 220 224 227 231 236 242 246 252 256 260 264 269 272 275 277 280 282 284 286 287 288 288 289 290 291 291 292 293
223 219 216 212 207 205 201 199 198 200 202 201 199 201 201 198 198 204 209 210 211 216 221 226 231 237 241 245 250 254 259 265 269 273 275 278 281 284 286 287 287 288 289 290 291 292 292 292 293
226 223 220 215 210 210 207 203 201 201 203 202 198 198 199 198 199 204 209 210 211 216 223 229 234 238 241 245 249 256 262 267 271 274 278 281 284 285 286 287 288 289 290 291 292 293 293 293 293
228 226 224 219 215 214 213 209 206 204 203 202 200 200 201 200 200 204 210 212 213 220 227 232 235 237 241 247 254 261 267 271 275 278 280 283 285 286 286 287 288 289 289 290 291 292 292 292 293
231 229 225 222 220 217 217 215 209 207 206 203 202 203 202 203 204 208 213 215 218 225 229 234 238 242 248 254 260 265 270 274 277 280 282 284 286 286 287 288 288 289 289 290 291 291 291 291 292
231 229 226 225 224 221 219 219 214 210 210 206 204 206 208 207 209 213 219 223 227 231 234 239 243 247 253 258 263 268 273 276 280 282 284 286 287 287 288 289 289 290 291 291 292 292 292 292 292
231 230 227 227 227 224 223 222 219 216 214 212 210 211 215 215 214 217 225 230 233 235 240 245 248 253 258 262 266 270 274 278 280 283 285 287 288 289 289 290 291 292 293 293 293 293 292 292 292
232 231 228 228 228 227 227 227 224 222 220 219 218 220 223 224 222 224 230 237 241 243 246 252 256 260 263 265 268 272 275 278 281 282 284 286 287 289 290 291 293 294 294 294 294 294 293 292 292
232 231 229 229 229 228 228 230 229 228 226 225 225 227 229 230 230 231 235 241 245 249 253 257 261 263 266 269 271 274 277 280 281 283 284 286 288 290 291 292 294 295 295 295 295 295 294 294 293
232 231 230 230 230 229 229 230 232 232 232 231 231 231 232 234 236 236 238 242 248 253 257 260 263 266 269 272 275 277 279 280 282 284 285 287 289 291 292 293 294 295 296 296 295 294 294 294 293
232 230 231 231 231 231 231 232 233 234 236 235 235 235 235 237 239 241 243 245 249 253 258 262 266 268 271 274 276 277 279 281 283 285 287 288 289 291 292 292 292 293 294 295 294 294 294 294 294
232 230 231 231 232 232 233 233 234 236 238 239 238 237 238 240 243 245 247 250 253 257 261 265 268 269 272 274 276 278 280 281 283 286 288 288 289 291 292 292 292 293 294 294 294 295 294 294 294
232 231 231 231 233 234 235 235 235 236 239 241 241 241 241 243 246 249 252 254 257 260 264 267 268 271 273 275 277 279 280 282 284 286 287 288 289 291 292 292 292 292 293 294 294 295 294 294 293
231 231 232 232 234 236 236 236 236 237 240 242 244 244 244 246 249 252 255 257 259 261 264 266 269 271 273 275 278 280 281 283 283 285 286 287 289 290 290 291 291 292 292 293 293 293 293 293 293
231 232 233 233 235 236 238 238 238 239 241 243 245 246 247 249 251 253 256 258 260 262 265 267 268 270 272 276 278 280 282 284 284 285 287 287 288 289 290 290 290 291 291 292 292 292 293 294 294
230 232 233 234 236 237 239 238 239 241 242 243 246 248 249 250 251 254 256 259 261 263 265 267 269 271 274 276 278 279 280 282 283 285 287 287 288 289 289 290 290 291 291 291 291 292 294 294 294
233 235 234 235 236 238 239 239 239 241 242 243 245 248 249 251 252 254 256 258 260 263 265 267 270 272 274 276 278 279 279 281 283 285 287 287 287 288 289 290 290 290 290 291 291 292 293 294 294
234 235 234 235 236 238 239 239 238 241 242 242 244 246 249 251 252 254 256 258 260 263 265 267 270 272 274 276 277 279 279 280 282 284 285 286 286 287 288 289 289 289 290 291 291 292 293 293 294
232 234 235 235 237 239 239 239 239 240 242 242 244 246 248 250 252 254 256 258 261 263 265 267 269 271 273 275 276 278 279 281 282 283 283 284 285 286 287 288 289 289 290 291 291 292 292 293 294
232 233 235 237 238 240 241 239 238 240 242 243 244 246 248 250 252 254 257 259 261 263 265 266 268 270 272 274 276 277 279 280 281 281 282 284 285 286 286 287 288 288 289 290 291 291 292 293 294
232 233 235 236 238 240 242 242 237 239 241 243 245 247 249 251 253 255 257 259 260 262 264 265 267 269 271 273 275 276 277 278 279 280 282 283 284 285 285 285 286 287 288 289 290 291 292 293 294
232 233 235 237 239 241 242 245 238 238 240 243 245 248 249 251 253 255 257 259 260 261 263 265 266 268 269 271 273 274 275 276 278 279 280 281 282 283 284 284 285 286 288 289 290 291 292 293 294
229 230 232 235 237 240 240 245 243 238 240 243 245 247 249 251 254 256 257 259 260 261 262 264 266 267 269 270 272 273 274 275 277 278 279 280 281 282 283 283 284 286 287 288 289 291 292 293 294
225 227 229 232 235 239 240 243 245 240 240 242 245 247 249 251 253 256 257 258 260 261 262 263 265 266 268 269 270 271 272 274 275 276 278 279 280 280 281 283 284 285 286 288 289 291 293 294 295
227 228 230 234 238 241 241 243 244 243 241 243 245 247 249 251 253 255 256 257 259 260 262 263 265 266 267 268 269 270 272 273 274 276 277 278 278 279 281 283 283 284 286 288 290 292 293 294 295
227 229 232 236 239 241 242 243 243 244 244 244 245 247 249 251 253 254 255 257 258 260 261 263 264 265 266 268 269 270 271 272 273 274 276 277 278 279 281 282 283 285 286 288 291 293 293 294 296
227 230 231 234 237 240 242 242 242 243 246 246 247 247 249 250 252 254 256 257 259 260 261 262 263 264 266 267 268 269 270 271 272 274 275 277 277 279 281 282 283 285 287 289 291 293 293 295 296
225 226 229 233 238 240 242 242 243 246 247 248 248 248 248 249 250 252 254 256 257 259 260 262 263 265 266 267 267 268 269 270 272 273 275 276 277 279 280 281 283 285 287 289 291 292 294 296 297
229 230 230 233 237 240 243 243 243 246 247 248 248 248 248 249 250 251 253 255 257 259 261 262 263 264 265 266 267 268 269 270 272 273 274 275 277 279 280 282 284 285 287 289 291 293 295 296 297
Height
5844 5845 5846 5847 5848 5848 5848 5850 5850 5851 5853 5855 5857 5859 5861 5863 5866 5869 5869 5869 5870 5872 5873 5874 5875 5876 5877 5877 5878 5878 5879 5879 5879 5879 5879 5879 5879 5878 5878 5877 5877 5876 5875 5874 5873 5872 5871 5870 5869
5843 5844 5845 5846 5846 5847 5848 5848 5849 5850 5852 5853 5855 5857 5859 5861 5863 5864 5865 5867 5868 5870 5871 5872 5873 5874 5875 5876 5876 5877 5877 5877 5877 5877 5877 5877 5877 5876 5875 5875 5874 5873 5872 5871 5870 5869 5868 5867 5866
5841 5842 5843 5844 5844 5845 5846 5847 5848 5849 5850 5852 5853 5855 5857 5859 5861 5862 5863 5865 5866 5868 5869 5870 5871 5872 5873 5873 5874 5875 5875 5875 5875 5875 5875 5875 5874 5874 5873 5872 5871 5870 5870 5868 5867 5866 5865 5864 5863
5839 5840 5842 5843 5843 5844 5845 5846 5847 5848 5849 5850 5852 5854 5856 5858 5859 5860 5861 5863 5865 5866 5867 5868 5869 5870 5871 5871 5872 5872 5873 5873 5873 5873 5872 5872 5872 5871 5870 5869 5868 5867 5866 5865 5864 5863 5861 5860 5859
5836 5837 5839 5840 5841 5842 5843 5844 5845 5846 5847 5849 5851 5852 5854 5856 5858 5859 5860 5861 5863 5864 5865 5866 5867 5868 5869 5869 5870 5870 5870 5870 5871 5870 5870 5869 5869 5868 5867 5866 5865 5864 5863 5862 5860 5859 5858 5856 5855
5833 5834 5836 5837 5838 5840 5841 5842 5843 5845 5846 5848 5849 5851 5852 5854 5856 5857 5858 5859 5861 5862 5863 5864 5865 5866 5866 5867 5867 5868 5868 5868 5868 5867 5867 5866 5866 5865 5864 5863 5862 5861 5859 5858 5857 5855 5854 5852 5851
5829 5830 5832 5834 5835 5837 5839 5839 5841 5843 5844 5846 5848 5849 5850 5852 5854 5855 5856 5857 5859 5860 5861 5861 5862 5863 5864 5864 5865 5865 5865 5865 5864 5864 5864 5863 5862 5861 5860 5859 5858 5857 5855 5854 5853 5851 5849 5848 5846
5823 5826 5827 5830 5832 5834 5835 5836 5838 5840 5842 5844 5845 5847 5848 5850 5852 5854 5854 5855 5856 5858 5858 5859 5860 5860 5861 5862 5862 5862 5862 5862 5861 5861 5860 5859 5858 5857 5856 5855 5854 5853 5851 5850 5848 5846 5845 5843 5841
5817 5821 5823 5826 5828 5830 5831 5833 5835 5837 5839 5841 5843 5845 5846 5848 5849 5851 5852 5853 5854 5855 5856 5856 5857 5858 5858 5858 5859 5859 5858 5858 5858 5857 5856 5855 5855 5854 5852 5851 5850 5848 5847 5845 5843 5841 5839 5838 5836
5811 5815 5819 5821 5823 5825 5827 5829 5831 5834 5836 5838 5840 5842 5843 5845 5846 5848 5850 5851 5851 5852 5853 5854 5854 5854 5855 5855 5855 5855 5855 5854 5854 5853 5853 5852 5851 5849 5848 5847 5845 5844 5842 5840 5838 5836 5834 5832 5830
5804 5809 5812 5814 5817 5819 5822 5824 5827 5829 5832 5834 5836 5838 5839 5841 5843 5845 5847 5848 5848 5849 5850 5850 5851 5851 5851 5851 5851 5851 5851 5850 5850 5849 5848 5847 5846 5845 5844 5842 5840 5839 5837 5835 5833 5831 5829 5826 5824
5797 5802 5804 5807 5810 5813 5816 5819 5822 5824 5827 5829 5831 5833 5835 5837 5839 5841 5843 5844 5845 5846 5846 5846 5847 5847 5847 5847 5847 5847 5846 5846 5845 5845 5844 5843 5841 5840 5839 5837 5835 5833 5832 5830 5827 5825 5823 5820 5818
5788 5794 5797 5800 5803 5806 5810 5813 5816 5819 5821 5823 5826 5828 5831 5832 5834 5836 5838 5840 5841 5841 5842 5842 5843 5843 5843 5843 5843 5842 5842 5841 5840 5839 5838 5837 5836 5835 5833 5832 5830 5828 5826 5824 5821 5819 5817 5814 5812
5780 5784 5788 5792 5795 5799 5803 5806 5810 5814 5815 5817 5820 5823 5825 5827 5829 5831 5833 5834 5836 5837 5837 5838 5838 5838 5838 5838 5838 5838 5837 5836 5835 5834 5833 5832 5830 5829 5827 5826 5824 5822 5819 5817 5815 5813 5810 5808 5805
5770 5775 5779 5784 5788 5792 5794 5799 5804 5807 5808 5811 5814 5817 5819 5822 5823 5825 5827 5829 5830 5831 5832 5833 5833 5833 5833 5833 5833 5832 5831 5831 5829 5828 5827 5826 5824 5823 5821 5819 5817 5815 5813 5811 5809 5806 5804 5801 5799
5760 5765 5771 5777 5780 5783 5787 5793 5797 5799 5801 5804 5807 5810 5813 5815 5817 5819 5821 5822 5824 5825 5826 5827 5827 5827 5827 5827 5827 5826 5825 5825 5823 5822 5821 5820 5818 5816 5815 5813 5811 5809 5807 5804 5802 5800 5797 5794 5791
5750 5756 5763 5769 5772 5775 5778 5785 5789 5790 5794 5797 5800 5802 5805 5808 5811 5813 5814 5816 5817 5818 5819 5820 5820 5821 5821 5821 5820 5820 5819 5818 5816 5815 5814 5813 5811 5809 5808 5806 5804 5802 5799 5797 5795 5792 5790 5787 5784
5744 5750 5755 5760 5763 5766 5769 5775 5780 5782 5786 5790 5793 5795 5798 5801 5804 5805 5807 5809 5810 5812 5812 5813 5813 5814 5813 5813 5813 5813 5812 5810 5809 5808 5807 5805 5804 5802 5800 5798 5796 5794 5792 5790 5788 5785 5782 5779 5776
5734 5739 5744 5750 5753 5756 5759 5764 5770 5773 5777 5781 5785 5788 5790 5794 5796 5798 5800 5801 5803 5804 5805 5806 5806 5806 5806 5806 5806 5805 5804 5803 5802 5801 5799 5798 5796 5795 5793 5791 5789 5787 5785 5782 5780 5777 5774 5772 5768
5722 5727 5734 5740 5743 5745 5749 5754 5760 5763 5768 5773 5776 5780 5783 5786 5788 5790 5792 5793 5795 5796 5797 5798 5798 5798 5798 5798 5798 5797 5796 5796 5794 5793 5791 5790 5788 5787 5785 5783 5781 5779 5777 5775 5772 5769 5767 5764 5761
5711 5719 5726 5731 5733 5734 5738 5743 5750 5755 5759 5763 5768 5771 5774 5777 5780 5782 5784 5786 5787 5788 5789 5789 5790 5790 5790 5790 5789 5789 5788 5787 5786 5785 5783 5782 5780 5779 5777 5775 5773 5771 5769 5767 5764 5761 5758 5756 5753
5702 5712 5716 5719 5721 5724 5728 5732 5742 5746 5750 5755 5759 5763 5766 5769 5771 5773 5775 5777 5779 5780 5780 5781 5781 5781 5781 5781 5781 5781 5780 5779 5778 5776 5775 5774 5772 5771 5769 5767 5765 5763 5761 5759 5756 5753 5750 5747 5744
5696 5702 5705 5708 5710 5713 5717 5719 5731 5737 5741 5747 5751 5754 5757 5760 5762 5764 5766 5768 5770 5770 5771 5772 5772 5773 5772 5772 5772 5772 5771 5770 5769 5768 5767 5765 5764 5762 5761 5759 5757 5755 5753 5750 5748 5745 5742 5739 5736
5684 5689 5692 5695 5698 5700 5709 5710 5717 5729 5734 5739 5742 5745 5747 5750 5753 5755 5757 5759 5760 5761 5762 5763 5764 5764 5764 5764 5763 5763 5762 5761 5760 5759 5758 5757 5756 5754 5752 5750 5749 5746 5744 5742 5739 5736 5733 5730 5727
5670 5676 5680 5682 5684 5691 5701 5700 5708 5721 5726 5729 5733 5735 5738 5740 5743 5745 5747 5749 5750 5752 5753 5754 5754 5755 5755 5754 5754 5754 5753 5753 5752 5751 5750 5748 5747 5745 5744 5742 5740 5738 5736 5733 5731 5728 5725 5722 5718
5660 5666 5671 5675 5678 5685 5689 5691 5702 5711 5716 5719 5723 5726 5728 5731 5734 5736 5738 5739 5741 5742 5743 5744 5745 5745 5746 5746 5745 5745 5745 5744 5743 5742 5741 5740 5738 5737 5735 5734 5731 5729 5727 5725 5722 5719 5716 5713 5709
5650 5655 5663 5667 5670 5674 5677 5684 5693 5700 5706 5711 5714 5717 5720 5722 5724 5726 5728 5730 5731 5733 5734 5735 5736 5736 5736 5736 5736 5736 5736 5735 5734 5733 5732 5731 5730 5728 5727 5725 5723 5721 5718 5716 5713 5710 5707 5704 5700
5640 5647 5651 5654 5658 5662 5668 5675 5684 5692 5697 5702 5705 5708 5710 5713 5715 5717 5719 5720 5722 5723 5724 5725 5726 5727 5727 5727 5727 5727 5727 5726 5725 5724 5723 5722 5721 5719 5718 5716 5714 5712 5710 5707 5704 5701 5698 5694 5690
5629 5634 5638 5645 5649 5654 5659 5669 5678 5684 5688 5692 5696 5698 5701 5703 5706 5708 5709 5711 5712 5714 5715 5716 5717 5718 5718 5718 5718 5718 5718 5717 5716 5716 5715 5713 5712 5711 5709 5707 5706 5703 5701 5698 5695 5692 5688 5685 5680
5619 5624 5630 5636 5640 5646 5651 5662 5669 5674 5678 5682 5686 5689 5692 5694 5697 5699 5700 5702 5703 5705 5706 5707 5708 5708 5708 5708 5709 5709 5709 5708 5708 5707 5706 5704 5703 5702 5700 5699 5697 5694 5692 5689 5686 5682 5679 5675 5670